Hourly Weather Akka

Today, 15 July, Wednesday

Time Temperature Precipitation Wind Pressure Humidity
00:00 +26°C° 0 mm 1 mps 755 mmHg 74%
01:00 +26°C° 0 mm 1 mps 754 mmHg 73%
02:00 +26°C° 0 mm 1 mps 754 mmHg 74%
03:00 +25°C° 0 mm 1 mps 755 mmHg 75%
04:00 +25°C° 0 mm 1 mps 755 mmHg 75%
05:00 +25°C° 0 mm 1 mps 755 mmHg 75%
06:00 +27°C° 0 mm 1 mps 755 mmHg 69%
07:00 +29°C° 0 mm 1 mps 756 mmHg 62%
08:00 +31°C° 0 mm 2 mps 756 mmHg 56%
09:00 +32°C° 0 mm 2 mps 756 mmHg 54%
10:00 +34°C° 0 mm 3 mps 756 mmHg 52%
11:00 +36°C° 0 mm 4 mps 756 mmHg 50%
12:00 +35°C° 0 mm 4 mps 755 mmHg 50%
13:00 +35°C° 0 mm 5 mps 755 mmHg 50%
14:00 +35°C° 0 mm 5 mps 755 mmHg 51%
15:00 +35°C° 0 mm 5 mps 755 mmHg 54%
16:00 +34°C° 0 mm 5 mps 755 mmHg 57%
17:00 +33°C° 0 mm 5 mps 755 mmHg 61%
18:00 +32°C° 0 mm 4 mps 755 mmHg 69%
19:00 +29°C° 0 mm 4 mps 755 mmHg 78%
20:00 +27°C° 0 mm 4 mps 755 mmHg 87%
21:00 +27°C° 0 mm 3 mps 755 mmHg 88%
22:00 +27°C° 0 mm 3 mps 755 mmHg 88%
23:00 +27°C° 0 mm 3 mps 755 mmHg 88%

Tomorrow, 16 July, Thursday

Time Temperature Precipitation Wind Pressure Humidity
00:00 +26°C° 0 mm 3 mps 755 mmHg 87%
01:00 +26°C° 0 mm 2 mps 754 mmHg 86%
02:00 +26°C° 0 mm 2 mps 754 mmHg 85%
03:00 +26°C° 0 mm 1 mps 754 mmHg 86%
04:00 +25°C° 0 mm 1 mps 754 mmHg 87%
05:00 +25°C° 0 mm 1 mps 754 mmHg 87%
06:00 +27°C° 0 mm 2 mps 755 mmHg 78%
07:00 +29°C° 0 mm 2 mps 755 mmHg 70%
08:00 +31°C° 0 mm 3 mps 755 mmHg 61%
09:00 +33°C° 0 mm 4 mps 754 mmHg 58%
10:00 +34°C° 0 mm 4 mps 754 mmHg 55%
11:00 +35°C° 0 mm 5 mps 754 mmHg 52%
12:00 +34°C° 0 mm 5 mps 754 mmHg 52%
13:00 +34°C° 0 mm 5 mps 753 mmHg 53%
14:00 +34°C° 0 mm 5 mps 753 mmHg 53%
15:00 +33°C° 0 mm 5 mps 753 mmHg 57%
16:00 +32°C° 0 mm 5 mps 753 mmHg 60%
17:00 +32°C° 0 mm 4 mps 752 mmHg 64%
18:00 +29°C° 0 mm 4 mps 753 mmHg 71%
19:00 +28°C° 0 mm 3 mps 753 mmHg 78%
20:00 +26°C° 0 mm 2 mps 753 mmHg 84%
21:00 +26°C° 0 mm 2 mps 753 mmHg 84%
22:00 +25°C° 0 mm 2 mps 753 mmHg 84%
23:00 +25°C° 0 mm 1 mps 753 mmHg 84%

Day after tomorrow, 17 July, Friday

Time Temperature Precipitation Wind Pressure Humidity
00:00 +25°C° 0 mm 1 mps 752 mmHg 85%
01:00 +24°C° 0 mm 2 mps 752 mmHg 86%
02:00 +24°C° 0 mm 2 mps 752 mmHg 87%
03:00 +24°C° 0 mm 2 mps 752 mmHg 88%
04:00 +23°C° 0 mm 2 mps 752 mmHg 88%
05:00 +23°C° 0 mm 2 mps 752 mmHg 89%
06:00 +25°C° 0 mm 3 mps 752 mmHg 78%
07:00 +27°C° 0 mm 3 mps 753 mmHg 68%
08:00 +30°C° 0 mm 3 mps 753 mmHg 57%
09:00 +31°C° 0 mm 3 mps 753 mmHg 53%
10:00 +33°C° 0 mm 4 mps 753 mmHg 50%
11:00 +34°C° 0 mm 4 mps 753 mmHg 46%
12:00 +34°C° 0 mm 4 mps 752 mmHg 47%
13:00 +34°C° 0 mm 4 mps 752 mmHg 47%
14:00 +34°C° 0 mm 5 mps 752 mmHg 48%
15:00 +33°C° 0 mm 4 mps 752 mmHg 51%
16:00 +32°C° 0 mm 4 mps 752 mmHg 54%
17:00 +30°C° 0 mm 4 mps 751 mmHg 57%
18:00 +29°C° 0 mm 3 mps 752 mmHg 63%
19:00 +27°C° 0 mm 2 mps 752 mmHg 69%
20:00 +26°C° 0 mm 2 mps 752 mmHg 75%
21:00 +25°C° 0 mm 2 mps 752 mmHg 76%
22:00 +25°C° 0 mm 1 mps 752 mmHg 77%
23:00 +24°C° 0 mm 1 mps 752 mmHg 78%

18 July, Saturday

Time Temperature Precipitation Wind Pressure Humidity
00:00 +24°C° 0 mm 1 mps 752 mmHg 80%
01:00 +24°C° 0 mm 1 mps 752 mmHg 83%
02:00 +24°C° 0 mm 1 mps 753 mmHg 85%
03:00 +23°C° 0 mm 1 mps 753 mmHg 86%
04:00 +23°C° 0 mm 1 mps 753 mmHg 88%
05:00 +23°C° 0 mm 2 mps 753 mmHg 89%
06:00 +25°C° 0 mm 2 mps 753 mmHg 80%
07:00 +27°C° 0 mm 2 mps 753 mmHg 72%
08:00 +29°C° 0 mm 2 mps 754 mmHg 64%
09:00 +31°C° 0 mm 3 mps 754 mmHg 59%
10:00 +33°C° 0 mm 3 mps 754 mmHg 54%
11:00 +35°C° 0 mm 4 mps 754 mmHg 49%
12:00 +35°C° 0 mm 4 mps 753 mmHg 50%
13:00 +34°C° 0 mm 4 mps 753 mmHg 51%
14:00 +34°C° 0 mm 5 mps 753 mmHg 52%
15:00 +34°C° 0 mm 5 mps 753 mmHg 54%
16:00 +33°C° 0 mm 5 mps 753 mmHg 56%
17:00 +32°C° 0 mm 5 mps 752 mmHg 57%
18:00 +30°C° 0 mm 4 mps 753 mmHg 64%
19:00 +28°C° 0 mm 4 mps 753 mmHg 71%
20:00 +26°C° 0 mm 3 mps 753 mmHg 77%
21:00 +26°C° 0 mm 3 mps 753 mmHg 77%
22:00 +26°C° 0 mm 2 mps 754 mmHg 77%
23:00 +26°C° 0 mm 2 mps 754 mmHg 77%

19 July, Sunday

Time Temperature Precipitation Wind Pressure Humidity
00:00 +25°C° 0 mm 2 mps 754 mmHg 79%
01:00 +25°C° 0 mm 1 mps 754 mmHg 80%
02:00 +25°C° 0 mm 1 mps 754 mmHg 82%
03:00 +24°C° 0 mm 1 mps 754 mmHg 83%
04:00 +24°C° 0 mm 1 mps 754 mmHg 84%
05:00 +24°C° 0 mm 1 mps 754 mmHg 85%
06:00 +26°C° 0 mm 1 mps 754 mmHg 76%
07:00 +28°C° 0 mm 2 mps 755 mmHg 66%
08:00 +30°C° 0 mm 2 mps 755 mmHg 57%
09:00 +33°C° 0 mm 3 mps 755 mmHg 55%
10:00 +34°C° 0 mm 3 mps 755 mmHg 53%
11:00 +35°C° 0 mm 4 mps 755 mmHg 51%
12:00 +35°C° 0 mm 4 mps 754 mmHg 50%
13:00 +35°C° 0 mm 4 mps 754 mmHg 50%
14:00 +35°C° 0 mm 5 mps 754 mmHg 49%
15:00 +34°C° 0 mm 5 mps 753 mmHg 51%
16:00 +34°C° 0 mm 5 mps 753 mmHg 52%
17:00 +33°C° 0 mm 5 mps 753 mmHg 54%
18:00 +32°C° 0 mm 4 mps 753 mmHg 60%
19:00 +29°C° 0 mm 4 mps 754 mmHg 66%
20:00 +27°C° 0 mm 3 mps 754 mmHg 72%
21:00 +27°C° 0 mm 3 mps 754 mmHg 72%
22:00 +27°C° 0 mm 3 mps 754 mmHg 72%
23:00 +26°C° 0 mm 2 mps 754 mmHg 71%

20 July, Monday

Time Temperature Precipitation Wind Pressure Humidity
00:00 +26°C° 0 mm 2 mps 754 mmHg 74%
01:00 +26°C° 0 mm 2 mps 754 mmHg 76%
02:00 +26°C° 0 mm 3 mps 754 mmHg 78%
03:00 +25°C° 0 mm 2 mps 754 mmHg 79%
04:00 +25°C° 0 mm 2 mps 754 mmHg 80%
05:00 +25°C° 0 mm 1 mps 754 mmHg 81%
06:00 +27°C° 0 mm 2 mps 754 mmHg 73%
07:00 +29°C° 0 mm 2 mps 754 mmHg 65%
08:00 +31°C° 0 mm 2 mps 754 mmHg 58%
09:00 +33°C° 0 mm 3 mps 754 mmHg 55%
10:00 +34°C° 0 mm 3 mps 754 mmHg 52%
11:00 +36°C° 0 mm 4 mps 754 mmHg 49%
12:00 +35°C° 0 mm 4 mps 753 mmHg 49%
13:00 +35°C° 0 mm 5 mps 753 mmHg 49%
14:00 +35°C° 0 mm 5 mps 753 mmHg 49%
15:00 +34°C° 0 mm 5 mps 752 mmHg 52%
16:00 +33°C° 0 mm 5 mps 752 mmHg 55%
17:00 +32°C° 0 mm 5 mps 752 mmHg 58%
18:00 +30°C° 0 mm 5 mps 753 mmHg 66%
19:00 +28°C° 0 mm 4 mps 753 mmHg 74%
20:00 +27°C° 0 mm 3 mps 753 mmHg 82%
21:00 +27°C° 0 mm 3 mps 753 mmHg 82%
22:00 +26°C° 0 mm 3 mps 753 mmHg 83%
23:00 +26°C° 0 mm 3 mps 753 mmHg 83%
Show more